Regional Weather Roundup
Issued by NWS Green Bay, WI

Home | Current Version | Previous Version | Text Only | Print | Product List | Glossary On
Versions: 1 2 3 4 5 6 7 8 9 10 11 12 13 14 15 16 17 18 19 20 21 22 23 24 25 26 27 28 29 30 31 32 33 34 35 36 37 38 39 40 41 42 43 44 45 46 47 48 49 50
000
ASUS43 KGRB 221311
RWRGRB

NORTH-CENTRAL AND NORTHEAST WISCONSIN REGIONAL WEATHER ROUNDUP
NATIONAL WEATHER SERVICE GREEN BAY WI
700 AM CST WED FEB 22 2017

WIZ005-009-010>012-018-019-221400-
NORTH CENTRAL WISCONSIN

CITY           SKY/WX    TMP DP  RH WIND       PRES   REMARKS
IRONWOOD       FAIR      35  34  96 S3        29.64S
MANITOWISH WTR FAIR      31  31 100 CALM      29.63S
ARBOR VITAE    FAIR      34  33  95 S5          N/A
EAGLE RIVER    FAIR      31  30  99 CALM      29.65R
LAND O LAKES   FAIR      32  31  98 SW3       29.65S
RHINELANDER    FAIR      40  36  86 SW5       29.66R
PHILLIPS       FAIR      32  32 100 CALM      29.63F
ANTIGO         FAIR      38  35  89 W6        29.67R
TOMAHAWK       FAIR      34  32  92 CALM      29.65F
MERRILL        NOT AVBL
$$

WIZ013-073-221400-
NORTHEAST WISCONSIN

CITY           SKY/WX    TMP DP  RH WIND       PRES   REMARKS
IRON MOUNTAIN  FAIR      30  27  88 CALM      29.64S
MARINETTE      FAIR      40  36  86 SW7       29.68F
OCONTO         FAIR      31  29  93 CALM      29.68S
$$

WIZ017-030-035>037-045-221400-
CENTRAL WISCONSIN

CITY           SKY/WX    TMP DP  RH WIND       PRES   REMARKS
MEDFORD        MOCLDY    39  35  85 E6        29.59F
WAUSAU         FAIR      45  35  68 SW12      29.63F
MOSINEE        PTCLDY    39  37  93 VRB5      29.65F
MARSHFIELD     CLOUDY    41  35  79 S5        29.62F
WISC RAPIDS    FAIR      42  37  82 SW6       29.66F
STEVENS POINT  MOCLDY    39  36  89 E9        29.63F
WAUPACA        FAIR      40  38  92 S5        29.68F
SHAWANO        FAIR      38  35  89 CALM      29.68F
CLINTONVILLE   FAIR      34  32  93 CALM      29.69R
WAUTOMA        FAIR      30  29  96 CALM      29.69F
$$

WIZ038-039-048-051-221400-
FOX VALLEY

CITY           SKY/WX    TMP DP  RH WIND       PRES   REMARKS
NWS GREEN BAY  FAIR      41  39  93 SW5       29.69S
APPLETON       PTCLDY    39  39 100 S6        29.68R
OSHKOSH        FAIR      44  41  89 SW10      29.69S
FOND DU LAC    FAIR      49  44  83 S12       29.71S
$$

WIZ022-050-052-221400-
EAST CENTRAL WISCONSIN

CITY           SKY/WX    TMP DP  RH WIND       PRES   REMARKS
EPHRAIM        FAIR      36  36 100 S6        29.67F FOG
WASHINGTON ISL FAIR      37  36  97 S10       29.67F FOG
STURGEON BAY   FAIR      34  33  96 SE3       29.70S FOG
MANITOWOC      FOG       35  34  96 CALM      29.71S VSB 1/4
SHEBOYGAN      FAIR      47  44  90 SW10      29.71S
$$

LMZ563-521-522-541>543-221400-
LAKESHORE

STATION/POSITION TIME  TEMP    WIND        PRES    VSBY  WAVE
                       AIR SEA DIR/SP/G                  HT/PER
                 (UTC) (F)     (DEG/KT/KT) (MB)    (MI)  (FT/S)
SHEBOYGAN LKSHOR 1200   40     170/  4/  5 1006.7F
KEWAUNEE LKSHORE 1242   37      CALM  /  2 1005.2F
NORTHPORT PIER   1240   37     170/  3/  7 1005.1F
SISTER BAY LKSHO 1235   36     160/  5/  7   N/A
CHAMBERS ISLAND  1240   43     180/  4/  8 1004.7F
MENOMINEE LKSHOR 1242   37     180/  7/  8 1004.2F
$$



USA.gov is the U.S. government's official web portal to all federal, state and local government web resources and services.